Previsão horária em Abdurashid

Hoje, 11 Abril, Domingo

Tempo Temperatura Precipitação Vento Pressão Humidade
00:00 +10°C° 0 mm 1 m/s 762 mmHg 74%
01:00 +10°C° 0 mm 1 m/s 763 mmHg 75%
02:00 +10°C° 0 mm 1 m/s 763 mmHg 77%
03:00 +9°C° 0 mm 1 m/s 763 mmHg 78%
04:00 +9°C° 0 mm 1 m/s 763 mmHg 78%
05:00 +10°C° 0 mm 1 m/s 762 mmHg 78%
06:00 +9°C° 0 mm 0 m/s 762 mmHg 78%
07:00 +11°C° 0 mm 1 m/s 762 mmHg 73%
08:00 +12°C° 0 mm 1 m/s 762 mmHg 68%
09:00 +14°C° 0 mm 2 m/s 762 mmHg 62%
10:00 +16°C° 0 mm 3 m/s 761 mmHg 58%
11:00 +17°C° 0 mm 4 m/s 761 mmHg 54%
12:00 +19°C° 0 mm 5 m/s 760 mmHg 50%
13:00 +19°C° 0 mm 5 m/s 760 mmHg 50%
14:00 +19°C° 0 mm 5 m/s 759 mmHg 51%
15:00 +17°C° 0 mm 5 m/s 759 mmHg 51%
16:00 +17°C° 0 mm 3 m/s 759 mmHg 55%
17:00 +16°C° 0 mm 2 m/s 759 mmHg 60%
18:00 +15°C° 0 mm 1 m/s 759 mmHg 64%
19:00 +15°C° 0 mm 1 m/s 759 mmHg 65%
20:00 +15°C° 0 mm 1 m/s 759 mmHg 66%
21:00 +14°C° 0 mm 1 m/s 759 mmHg 67%
22:00 +13°C° 0 mm 2 m/s 759 mmHg 73%
23:00 +13°C° 0 mm 2 m/s 759 mmHg 78%

Amanhã, 12 Abril, Segunda-feira

Tempo Temperatura Precipitação Vento Pressão Humidade
00:00 +11°C° 0 mm 3 m/s 759 mmHg 83%
01:00 +11°C° 0 mm 3 m/s 759 mmHg 85%
02:00 +12°C° 0 mm 2 m/s 759 mmHg 87%
03:00 +10°C° 0 mm 2 m/s 759 mmHg 89%
04:00 +10°C° 0 mm 2 m/s 759 mmHg 88%
05:00 +10°C° 0 mm 2 m/s 760 mmHg 87%
06:00 +10°C° 0 mm 2 m/s 760 mmHg 86%
07:00 +12°C° 0 mm 3 m/s 760 mmHg 78%
08:00 +14°C° 0 mm 3 m/s 761 mmHg 70%
09:00 +17°C° 0 mm 4 m/s 762 mmHg 62%
10:00 +17°C° 0 mm 4 m/s 761 mmHg 60%
11:00 +18°C° 0 mm 3 m/s 761 mmHg 57%
12:00 +19°C° 0 mm 3 m/s 761 mmHg 55%
13:00 +19°C° 0 mm 3 m/s 761 mmHg 54%
14:00 +20°C° 0 mm 2 m/s 761 mmHg 54%
15:00 +20°C° 0 mm 2 m/s 761 mmHg 54%
16:00 +19°C° 0 mm 2 m/s 762 mmHg 60%
17:00 +18°C° 0 mm 3 m/s 762 mmHg 65%
18:00 +17°C° 0 mm 3 m/s 762 mmHg 71%
19:00 +16°C° 0 mm 3 m/s 763 mmHg 74%
20:00 +14°C° 0 mm 3 m/s 763 mmHg 76%
21:00 +14°C° 0 mm 3 m/s 763 mmHg 78%
22:00 +13°C° 0 mm 3 m/s 763 mmHg 80%
23:00 +13°C° 0 mm 2 m/s 763 mmHg 82%

Depois de amanhã, 13 Abril, Terça-feira

Tempo Temperatura Precipitação Vento Pressão Humidade
00:00 +13°C° 0 mm 2 m/s 762 mmHg 83%
01:00 +12°C° 0 mm 2 m/s 763 mmHg 83%
02:00 +12°C° 0 mm 2 m/s 763 mmHg 83%
03:00 +12°C° 0 mm 2 m/s 763 mmHg 83%
04:00 +12°C° 0 mm 2 m/s 763 mmHg 83%
05:00 +12°C° 0 mm 2 m/s 763 mmHg 82%
06:00 +12°C° 0 mm 1 m/s 763 mmHg 81%
07:00 +13°C° 0 mm 1 m/s 763 mmHg 78%
08:00 +14°C° 0 mm 1 m/s 763 mmHg 74%
09:00 +15°C° 0 mm 1 m/s 764 mmHg 71%
10:00 +15°C° 0 mm 1 m/s 763 mmHg 70%
11:00 +16°C° 0 mm 2 m/s 763 mmHg 69%
12:00 +16°C° 0 mm 2 m/s 763 mmHg 68%
13:00 +17°C° 0 mm 2 m/s 763 mmHg 66%
14:00 +17°C° 0 mm 2 m/s 763 mmHg 65%
15:00 +18°C° 0 mm 3 m/s 763 mmHg 63%
16:00 +17°C° 0 mm 3 m/s 763 mmHg 67%
17:00 +16°C° 0 mm 3 m/s 763 mmHg 71%
18:00 +14°C° 0 mm 3 m/s 763 mmHg 74%
19:00 +13°C° 0 mm 3 m/s 763 mmHg 78%
20:00 +12°C° 0 mm 3 m/s 763 mmHg 82%
21:00 +12°C° 0 mm 3 m/s 763 mmHg 85%
22:00 +11°C° 0 mm 3 m/s 763 mmHg 87%
23:00 +11°C° 0 mm 3 m/s 763 mmHg 89%

14 Abril, Quarta-feira

Tempo Temperatura Precipitação Vento Pressão Humidade
00:00 +11°C° 0 mm 3 m/s 762 mmHg 91%
01:00 +10°C° 0 mm 3 m/s 762 mmHg 91%
02:00 +10°C° 0 mm 3 m/s 762 mmHg 92%
03:00 +10°C° 0 mm 3 m/s 761 mmHg 93%
04:00 +10°C° 0 mm 3 m/s 761 mmHg 91%
05:00 +10°C° 0 mm 4 m/s 761 mmHg 89%
06:00 +10°C° 0 mm 4 m/s 761 mmHg 87%
07:00 +11°C° 0 mm 4 m/s 761 mmHg 80%
08:00 +13°C° 0 mm 5 m/s 761 mmHg 72%
09:00 +15°C° 0 mm 5 m/s 761 mmHg 65%
10:00 +15°C° 0 mm 5 m/s 761 mmHg 63%
11:00 +16°C° 0 mm 5 m/s 761 mmHg 60%
12:00 +17°C° 0 mm 4 m/s 761 mmHg 58%
13:00 +15°C° 0.3 mm 4 m/s 761 mmHg 64%
14:00 +15°C° 0.3 mm 4 m/s 761 mmHg 69%
15:00 +14°C° 0.3 mm 3 m/s 761 mmHg 74%
16:00 +13°C° 0.8 mm 3 m/s 761 mmHg 79%
17:00 +14°C° 0.8 mm 2 m/s 761 mmHg 84%
18:00 +13°C° 0.8 mm 2 m/s 762 mmHg 89%
19:00 +13°C° 0.1 mm 2 m/s 761 mmHg 89%
20:00 +11°C° 0.1 mm 3 m/s 761 mmHg 90%
21:00 +11°C° 0.1 mm 3 m/s 761 mmHg 90%
22:00 +11°C° 0 mm 3 m/s 761 mmHg 88%
23:00 +11°C° 0 mm 3 m/s 761 mmHg 87%

15 Abril, Quinta-feira

Tempo Temperatura Precipitação Vento Pressão Humidade
00:00 +11°C° 0 mm 3 m/s 761 mmHg 85%
01:00 +10°C° 0 mm 3 m/s 761 mmHg 86%
02:00 +10°C° 0 mm 3 m/s 761 mmHg 87%
03:00 +10°C° 0 mm 3 m/s 761 mmHg 88%
04:00 +10°C° 0 mm 3 m/s 761 mmHg 88%
05:00 +10°C° 0 mm 3 m/s 761 mmHg 88%
06:00 +10°C° 0 mm 3 m/s 761 mmHg 88%
07:00 +12°C° 0 mm 3 m/s 761 mmHg 80%
08:00 +14°C° 0 mm 3 m/s 761 mmHg 72%
09:00 +17°C° 0 mm 4 m/s 761 mmHg 65%
10:00 +18°C° 0 mm 3 m/s 760 mmHg 59%
11:00 +19°C° 0 mm 3 m/s 760 mmHg 54%
12:00 +20°C° 0 mm 3 m/s 760 mmHg 49%
13:00 +21°C° 0 mm 3 m/s 759 mmHg 46%
14:00 +22°C° 0 mm 3 m/s 759 mmHg 44%
15:00 +23°C° 0 mm 2 m/s 759 mmHg 42%
16:00 +21°C° 0 mm 2 m/s 759 mmHg 46%
17:00 +20°C° 0 mm 2 m/s 759 mmHg 51%
18:00 +19°C° 0 mm 2 m/s 759 mmHg 56%
19:00 +18°C° 0 mm 2 m/s 759 mmHg 57%
20:00 +17°C° 0 mm 2 m/s 760 mmHg 59%
21:00 +16°C° 0 mm 3 m/s 760 mmHg 60%
22:00 +16°C° 0 mm 3 m/s 760 mmHg 62%
23:00 +14°C° 0 mm 3 m/s 759 mmHg 65%

16 Abril, Sexta-feira

Tempo Temperatura Precipitação Vento Pressão Humidade
00:00 +14°C° 0 mm 3 m/s 759 mmHg 67%
01:00 +13°C° 0 mm 3 m/s 759 mmHg 68%
02:00 +13°C° 0 mm 3 m/s 759 mmHg 68%
03:00 +14°C° 0 mm 2 m/s 758 mmHg 69%
04:00 +14°C° 0 mm 2 m/s 758 mmHg 69%
05:00 +14°C° 0 mm 2 m/s 758 mmHg 69%
06:00 +14°C° 0 mm 2 m/s 758 mmHg 69%
07:00 +16°C° 0 mm 1 m/s 758 mmHg 62%
08:00 +19°C° 0 mm 1 m/s 757 mmHg 56%
09:00 +21°C° 0 mm 1 m/s 757 mmHg 49%
10:00 +21°C° 0 mm 2 m/s 756 mmHg 46%
11:00 +22°C° 0 mm 3 m/s 756 mmHg 44%
12:00 +25°C° 0 mm 4 m/s 755 mmHg 41%
13:00 +23°C° 0 mm 5 m/s 755 mmHg 42%
14:00 +23°C° 0 mm 6 m/s 754 mmHg 42%
15:00 +23°C° 0 mm 7 m/s 753 mmHg 43%
16:00 +21°C° 0 mm 6 m/s 753 mmHg 49%
17:00 +19°C° 0 mm 5 m/s 753 mmHg 54%
18:00 +16°C° 0 mm 5 m/s 753 mmHg 60%
19:00 +15°C° 0 mm 4 m/s 753 mmHg 63%
20:00 +16°C° 0 mm 2 m/s 753 mmHg 65%
21:00 +15°C° 0 mm 1 m/s 753 mmHg 68%
22:00 +14°C° 0.1 mm 3 m/s 753 mmHg 71%
23:00 +14°C° 0.1 mm 5 m/s 754 mmHg 74%
Mostrar mais

Necessitamos do seu Consentimento

A Meteoprog e os seus Fornecedores de Serviços podem armazenar e aceder a dados pessoais como cookies, identificadores do dispositivo ou outras tecnologias semelhantes existentes no seu dispositivo e processar estes dados para personalizar conteúdos e anúncios, assim como funcionalidades nas redes sociais e análise de tráfego.

  • Armazenar e/ou aceder a informações no seu dispositivo

    Os cookies, identificadores do dispositivo ou outras informações podem ser armazenados ou acedidos no seu dispositivo, para os fins acima indicados.

  • Anúncios e conteúdos personalizados, medição de anúncios e conteúdos, dados sobre o público-alvo e desenvolvimento de produtos

    Os anúncios e os conteúdos podem ser personalizados com base num perfil. Podem ser adicionados dados adicionais para uma maior personalização dos anúncios e dos conteúdos. A eficácia dos anúncios e dos conteúdos pode ser medida. Podem ser obtidas informações sobre o público que visualizou os anúncios e os conteúdos. Estes dados podem ser usados para desenvolver ou melhorar sistemas, softwares ou a experiência do utilizador.

Ao clicar em "Eu concordo”, permitirá o uso de cookies, identificadores do dispositivo e web beacons mencionados ou outras tecnologias semelhantes. As configurações do navegador do seu dispositivo podem ser alteradas.

Para certos fins, podem ser invocados interesses legítimos ao invés de consentimento. Pode ler mais informação sobre este assunto na nossa Política de Privacidade e Cookies.